Location: Newark
(48.5156°N, 1.8989°W)
Time: 03:16:26
(UTC+00:00)

Courier 1B - Pass Details

Date: 26 November 2019
Orbit: 963 x 1209 km, 28.3° (Epoch: 07 December)

Event Time Altitude Azimuth Distance (km) Brightness Sun altitude
Exits shadow 05:35:34 - 225° (SW) 3,331 10.0 -18.6°
Reaches altitude 10° 05:37:37 10° 212° (SSW) 2,931 9.8 -18.3°
Maximum altitude 05:40:47 13° 186° (S) 2,642 9.8 -17.7°
Drops below altitude 10° 05:43:53 10° 159° (SSE) 2,847 10.4 -17.2°
Sets 05:48:09 0° 134° (SE) 3,745 11.6 -16.6°
